Content
SEND FEEDBACK

Daily
Averages
Monthly
Summary
French Polynesia

PAPEETE, FRENCH POLYNESIA


Home > Oceania > French Polynesia
Elevation: 7 feet     Latitude: 17 33S     Longitude: 149 36W

WEATHER
 
SELECT A DAY
Number of Records: 207,916;   Date Range: 6/30/96 - 7/11/14
 
SHARE

PRINT THIS DATA

[ ← Previous Day ]
WEATHER ALMANAC - NOVEMBER 16, 2013
[ Next Day → ]
[ °C ]   °F
Weather ElementAverageHighLow
Temperature78.2 °F84.2 °F (12:00 pm)69.8 °F (5:00 am)
Dewpoint65.3 °F68 °F (3:00 pm)62 °F (5:00 am)
Humidity63.6 %78 % (1:00 am)43 % (2:00 pm)
Barometer29.83 in29.89 in (7:30 am)29.74 in (4:00 pm)
Wind Speed5.1 mph11.2 mph (2:00 pm)
Weather ElementAverage
Visibility8 mi
Wind DirectionS (183.5 °)

Weather ElementTotal
Precipitation---
Cooling Degree Days12 (Base 65)
Growing Degree Days27 (Base 50)
Averaged from 55 records on November 16, 2013
WEATHER CONDITIONS BREAKOUT
WIND DIRECTION BREAKOUT
WEATHER BY HOUR - NOVEMBER 16, 2013
[ °C ]   °F
Local TimeTemperatureDewpointHumidityBarometerVisibilityWind DirectionWind SpeedGust SpeedPrecipitationEventsConditions
12:30 AM73.4 °F64.4 °F73 %29.86 in6.2 miVariable1.2 mphPartly Cloudy
1:00 AM71.6 °F64.4 °F78 %29.86 in6.2 miSouth (180°)4.6 mphPartly Cloudy
1:30 AM73.4 °F64.4 °F73 %29.86 in6.2 miSSE (150°)4.6 mphPartly Cloudy
2:00 AM73.0 °F64.0 °F66 %29.85 in12.0 miSSE (150°)6.7 mphScattered Clouds
2:00 AM73.4 °F64.4 °F73 %29.83 in6.2 miSSE (150°)3.5 mphPartly Cloudy
2:30 AM73.4 °F64.4 °F73 %29.83 in6.2 miESE (110°)2.3 mphPartly Cloudy
3:00 AM71.6 °F64.4 °F78 %29.83 in6.2 miESE (110°)3.5 mphPartly Cloudy
3:30 AM71.6 °F64.4 °F78 %29.83 in6.2 miEast (100°)4.6 mph
4:00 AM71.6 °F62.6 °F73 %29.83 in6.2 miEast (100°)4.6 mph
4:30 AM71.6 °F62.6 °F73 %29.83 in6.2 miESE (110°)3.5 mph
5:00 AM71.0 °F62.0 °F67 %29.85 in34.0 miSouth (190°)2.3 mphClear
5:00 AM69.8 °F62.6 °F78 %29.83 in6.2 miVariable2.3 mph
5:30 AM71.6 °F62.6 °F73 %29.83 in6.2 miSSE (160°)4.6 mph
6:00 AM71.6 °F64.4 °F78 %29.86 in6.2 miSSE (160°)3.5 mphPartly Cloudy
6:30 AM75.2 °F66.2 °F73 %29.86 in6.2 miEast (80°)3.5 mphPartly Cloudy
7:00 AM78.8 °F64.4 °F61 %29.86 in6.2 miVariable1.2 mphPartly Cloudy
7:30 AM78.8 °F64.4 °F61 %29.89 in6.2 miNNE (20°)4.6 mphPartly Cloudy
8:00 AM80.0 °F64.0 °F49 %29.89 in19.0 miNorth (350°)5.8 mphPartly Cloudy
8:00 AM80.6 °F64.4 °F58 %29.89 in6.2 miNorth (350°)5.8 mphPartly Cloudy
8:30 AM80.6 °F66.2 °F61 %29.89 in6.2 miNNE (20°)4.6 mphPartly Cloudy
9:00 AM82.4 °F64.4 °F54 %29.86 in6.2 miNNW (340°)4.6 mphPartly Cloudy
9:30 AM82.4 °F64.4 °F54 %29.86 in6.2 miNW (320°)5.8 mphPartly Cloudy
10:00 AM82.4 °F66.2 °F58 %29.86 in6.2 miWest (280°)5.8 mphPartly Cloudy
10:30 AM80.6 °F66.2 °F61 %29.86 in6.2 miWest (260°)4.6 mphPartly Cloudy
11:00 AM82.0 °F66.0 °F50 %29.86 in19.0 miSW (220°)6.9 mphPartly Cloudy
11:00 AM82.4 °F66.2 °F58 %29.86 in6.2 miSW (220°)6.9 mphPartly Cloudy
11:30 AM82.4 °F66.2 °F58 %29.83 in6.2 miSW (230°)6.9 mphPartly Cloudy
12:00 PM84.2 °F64.4 °F51 %29.83 in6.2 miSW (230°)6.9 mphPartly Cloudy
12:30 PM82.4 °F66.2 °F58 %29.80 in6.2 miWSW (240°)6.9 mphPartly Cloudy
1:00 PM82.4 °F64.4 °F54 %29.80 in6.2 miWest (260°)3.5 mphPartly Cloudy
1:30 PM84.2 °F66.2 °F55 %29.77 in6.2 miWNW (300°)3.5 mphPartly Cloudy
2:00 PM84.0 °F65.0 °F43 %29.79 in19.0 miNNW (330°)11.2 mphPartly Cloudy
2:00 PM84.2 °F64.4 °F51 %29.77 in6.2 miNNW (330°)5.8 mphPartly Cloudy
2:30 PM84.2 °F66.2 °F55 %29.77 in6.2 miNNW (330°)6.9 mphScattered Clouds
3:00 PM82.4 °F68.0 °F62 %29.77 in6.2 miNorth (350°)8.1 mphScattered Clouds
3:30 PM82.4 °F68.0 °F62 %29.77 in6.2 miNorth (350°)10.4 mphScattered Clouds
4:00 PM82.4 °F68.0 °F62 %29.74 in6.2 miNNW (340°)10.4 mphScattered Clouds
4:30 PM80.6 °F68.0 °F65 %29.77 in6.2 miNW (310°)10.4 mphPartly Cloudy
5:00 PM82.0 °F67.0 °F50 %29.78 in19.0 miNW (310°)3.5 mphPartly Cloudy
5:00 PM82.4 °F66.2 °F58 %29.77 in6.2 miNW (310°)3.5 mphScattered Clouds
5:30 PM80.6 °F66.2 °F61 %29.80 in6.2 miSW (230°)5.8 mphScattered Clouds
6:00 PM80.6 °F66.2 °F61 %29.80 in6.2 miSW (230°)9.2 mphScattered Clouds
6:30 PM80.6 °F66.2 °F61 %29.80 in6.2 miSSW (200°)5.8 mphScattered Clouds
7:00 PM78.8 °F66.2 °F65 %29.80 in6.2 miSouth (190°)4.6 mphScattered Clouds
7:30 PM78.8 °F66.2 °F65 %29.83 in6.2 miSE (140°)3.5 mphScattered Clouds
8:00 PM78.0 °F66.0 °F59 %29.83 in12.0 miEast (90°)3.5 mphScattered Clouds
8:00 PM77.0 °F66.2 °F69 %29.83 in6.2 miEast (90°)3.5 mphPartly Cloudy
8:30 PM77.0 °F66.2 °F69 %29.83 in6.2 miEast (80°)4.6 mphPartly Cloudy
9:00 PM77.0 °F66.2 °F69 %29.83 in6.2 miVariable1.2 mphPartly Cloudy
9:30 PM75.2 °F66.2 °F73 %29.83 in6.2 miEast (80°)3.5 mphPartly Cloudy
10:00 PM77.0 °F66.2 °F69 %29.86 in6.2 miENE (70°)3.5 mphMostly Cloudy
10:30 PM77.0 °F64.4 °F65 %29.83 in6.2 miENE (70°)4.6 mphMostly Cloudy
11:00 PM76.0 °F65.0 °F62 %29.86 in16.0 miEast (90°)8.9 mphMostly Cloudy
11:00 PM77.0 °F66.2 °F69 %29.86 in6.2 miEast (90°)4.6 mphMostly Cloudy
11:30 PM77.0 °F64.4 °F65 %29.83 in6.2 miEast (90°)3.5 mphMostly Cloudy
Hourly data recorded from NTAA, located miles away from Papeete, French Polynesia







STORIES FROM OUR PARTNERS